Regional Weather Roundup
Issued by NWS

Home | Current Version | Previous Version | Graphics & Text | Print | Product List | Glossary On
Versions: 1 2 3 4 5 6 7 8 9 10 11 12 13 14 15 16 17 18 19 20 21 22 23 24 25 26 27 28 29 30 31 32 33 34 35 36 37 38 39 40 41 42 43 44 45 46 47 48 49 50
287
ASUS43 KOAX 232010
RWRNE

WEATHER ROUNDUP FOR NEBRASKA
NATIONAL WEATHER SERVICE OMAHA NE
200 PM CST FRI FEB 23 2018

NOTES: SATELLITE DATA IS BEING USED TO AUGMENT CLOUD COVER ABOVE
       12000 FEET.
       "FAIR" INDICATES FEW OR NO CLOUDS BELOW 12,000 FEET WITH NO
       SIGNIFICANT WEATHER AND/OR OBSTRUCTIONS TO VISIBILITY.


NEZ001>004-019>022-054>056-232100-
NEBRASKA PANHANDLE

CITY           SKY/WX    TMP DP  RH WIND       PRES   REMARKS
SCOTTSBLUFF    SUNNY     23  12  62 E12       30.09F WCI  12
ALLIANCE       SUNNY     19  10  68 CALM      30.10F
CHADRON        SUNNY     17   5  59 N5        30.14F WCI  10
GORDON         FAIR      20   5  52 N3        30.12F
KIMBALL        PTSUNNY   28  18  65 E9        30.03F WCI  19
SIDNEY         SUNNY     29  14  53 E12       30.07F WCI  19
$$

NEZ057>060-069>072-079>082-232100-
SOUTHWEST NEBRASKA

CITY           SKY/WX    TMP DP  RH WIND       PRES   REMARKS
NORTH PLATTE   SUNNY     26  16  65 E5        30.20F WCI  20
IMPERIAL       SUNNY     29  19  66 NE10      30.14F WCI  20
LEXINGTON      CLOUDY    24  20  85 CALM      30.23F
MCCOOK         SUNNY     34  24  67 SE5       30.18F WCI  30
OGALLALA       SUNNY     27  16  62 E7        30.16F WCI  20
$$

NEZ005>010-023>029-035>040-094-232100-
NORTH CENTRAL NEBRASKA

CITY           SKY/WX    TMP DP  RH WIND       PRES   REMARKS
VALENTINE      SUNNY     20   9  62 W7        30.21F WCI  11
AINSWORTH      SUNNY     21  13  70 CALM      30.22S
BROKEN BOW     CLOUDY    22  16  78 CALM      30.23F
O`NEILL        SUNNY     20  15  80 SW3       30.27F
ORD            PTSUNNY   24  17  74 N5        30.26F WCI  18
THEDFORD       SUNNY     25  15  65 SE3       30.21F
$$

NEZ041-046>049-061>064-073>077-083>087-232100-
SOUTH CENTRAL NEBRASKA

CITY           SKY/WX    TMP DP  RH WIND       PRES   REMARKS
GRAND ISLAND   CLOUDY    24  20  84 NE3       30.27F
AURORA         CLOUDY    25  22  88 N6        30.27F WCI  18
HASTINGS       CLOUDY    28  22  78 N9        30.25F WCI  19
HEBRON         CLOUDY    32  28  84 NE8       30.27F WCI  25
HOLDREGE       MOSUNNY   33  24  71 NE6       30.22F WCI  27
KEARNEY        CLOUDY    25  20  81 NE3       30.25
YORK           PTSUNNY   27  25  93 N6        30.28F WCI  20
$$

NEZ011>018-030>034-042>045-232100-
NORTHEAST NEBRASKA

CITY           SKY/WX    TMP DP  RH WIND       PRES   REMARKS
NORFOLK        CLOUDY    24  18  77 VRB3      30.28S
ALBION         CLOUDY    25  19  78 CALM      30.29S
BLAIR          CLOUDY    26  22  87 NW8       30.28F WCI  17
COLUMBUS       PTSUNNY   27  21  78 N5        30.31F WCI  22
FREMONT        CLOUDY    26  21  83 N6        30.31F WCI  19
TEKAMAH        CLOUDY    26  21  81 NW6       30.32F WCI  19
WAYNE          CLOUDY    23  21  93 NW7       30.30F WCI  15
$$

NEZ050>053-065>068-078-088>093-232100-
SOUTHEAST NEBRASKA

CITY           SKY/WX    TMP DP  RH WIND       PRES   REMARKS
LINCOLN        PTSUNNY   32  26  78 NE9       30.30F WCI  24
OMAHA EPPLEY   MOSUNNY   28  22  78 N12       30.30F WCI  18
BEATRICE       CLOUDY    32  28  84 NE5       30.28F WCI  28
FALLS CITY     PTSUNNY   36  28  73 NE5       30.28F WCI  32
NEBRASKA CITY  MOSUNNY   32  30  91 NW5       30.30R WCI  27
PLATTSMOUTH    CLOUDY    31  26  83 N6        30.29F WCI  25
$$

NEZ044-045-051>053-067-232100-
OMAHA AREA

CITY           SKY/WX    TMP DP  RH WIND       PRES   REMARKS
OMAHA EPPLEY   MOSUNNY   28  22  78 N12       30.30F WCI  18
BLAIR          CLOUDY    26  22  87 NW8       30.28F WCI  17
FREMONT        CLOUDY    26  21  83 N6        30.31F WCI  19
MILLARD        PTSUNNY   29  23  77 NW8       30.30F WCI  21
OFFUTT AFB     PTSUNNY   31  25  78 NW6       30.29F WCI  25
PLATTSMOUTH    CLOUDY    31  26  83 N6        30.29F WCI  25
WAHOO          CLOUDY    26  21  82 N10       30.31F WCI  15
$$




USA.gov is the U.S. government's official web portal to all federal, state and local government web resources and services.